User: anonymous   Login
Location: Bois de la Silve
(44.4667°N, 6.7833°E)
Time: 22:49:10
(UTC+00:00)
Language:

Cosmos 1271 Rocket - Orbit

View from above orbital plane
View from above orbital plane
View from above satellite
View from above satellite

Ground track
Ground track

The orbit data is extracted from the following two-line orbital elements,

1 12465U 81046B   20263.60648119 +.00000397 +00000-0 +19803-4 0  9999
2 12465 081.2403 095.9905 0033112 302.1352 057.6664 15.14683605134530
Epoch (UTC): 19 September 2020 14:33:19
Eccentricity: 0.0033112
inclination: 81.2403°
perigee height: 499 km
apogee height: 545 km
right ascension of ascending node: 95.9905°
argument of perigee: 302.1352°
revolutions per day: 15.14683605
mean anomaly at epoch: 57.6664°
orbit number at epoch: 13453

The dashed part of the orbit path shows where the satellite is in the earth's shadow,  

DLR